Temperature
18 18 18 18 18 18 18 18 18 18 18 18 18 18 18 18 18 18 18 18 18 18 17 17 17 17 17 17 17 17 17 17 17 17 16 16 16 16 16 16 16 16 16
18 18 18 18 18 18 18 18 18 18 18 18 18 18 18 18 18 18 18 18 18 18 17 17 17 17 17 17 17 17 17 17 17 17 16 16 16 16 16 16 16 16 16
18 18 18 18 18 18 18 18 18 18 18 18 18 18 18 18 18 18 18 18 18 17 17 17 17 17 17 17 17 17 17 17 17 17 16 16 16 16 16 16 16 16 16
18 18 18 18 18 18 18 18 18 18 18 18 18 18 18 18 18 18 18 18 17 17 17 17 17 17 17 17 17 17 17 17 17 17 16 16 16 16 16 16 16 16 16
18 18 18 18 18 18 18 18 18 18 18 18 18 18 18 18 17 17 17 18 17 17 17 17 17 17 17 17 17 17 17 17 17 17 16 16 16 16 16 16 16 16 16
18 18 18 18 18 18 18 18 18 18 18 18 18 18 18 18 17 17 18 18 17 17 17 17 17 17 17 17 17 17 17 17 16 16 16 16 16 16 16 16 16 16 15
18 18 18 18 18 18 18 18 18 18 18 18 17 17 17 17 17 17 17 17 17 17 17 17 17 17 17 17 17 17 17 17 16 16 16 16 16 16 16 16 16 15 15
18 18 18 18 18 18 18 18 18 18 18 17 17 17 17 17 17 17 17 17 17 17 17 17 17 17 17 17 17 17 17 16 16 16 16 16 16 16 16 16 15 15 15
18 18 18 18 18 18 18 18 18 18 18 17 17 17 17 17 17 17 17 17 17 17 17 17 17 17 17 17 17 17 16 16 16 16 16 16 16 16 16 15 15 15 15
18 18 18 18 18 18 18 18 18 18 18 17 17 17 17 17 17 16 17 17 17 17 17 17 17 17 17 16 16 16 16 16 16 16 16 16 16 16 16 15 15 15 15
18 18 18 18 18 18 18 18 18 18 17 17 17 17 17 17 17 16 16 16 17 17 16 17 16 16 16 16 16 16 16 16 16 16 16 16 16 16 15 15 15 15 15
18 18 18 18 18 18 18 18 18 17 17 17 17 17 17 17 17 16 16 16 16 16 16 16 16 16 16 16 16 16 16 16 16 16 16 16 15 15 15 15 15 15 15
19 18 18 18 18 18 18 18 18 18 17 17 17 17 17 17 16 16 16 16 16 16 16 16 16 16 16 16 16 16 16 15 15 15 15 15 15 15 15 15 15 14 14
19 19 18 18 18 18 18 18 18 17 17 17 17 17 17 17 16 16 16 16 16 15 16 16 16 16 16 16 15 15 15 15 15 15 15 15 15 15 14 14 14 14 14
19 19 18 18 18 18 18 18 18 17 17 17 17 17 17 17 16 16 16 16 16 15 15 15 15 15 15 15 15 15 15 15 15 15 15 14 14 14 14 14 14 14 14
19 19 18 18 18 18 18 18 17 17 17 17 17 17 17 16 16 16 16 16 16 15 15 15 15 15 15 15 15 15 15 15 14 14 14 14 14 14 14 14 14 14 14
19 18 18 18 18 18 18 18 17 17 17 17 17 16 16 16 16 16 16 16 15 15 15 15 15 14 14 14 14 14 14 14 14 14 14 14 14 14 14 13 13 13 13
18 18 18 18 18 18 18 17 17 17 17 17 17 16 16 16 16 16 16 15 15 15 15 15 15 14 14 14 14 14 14 14 13 13 13 13 13 13 13 13 13 13 13
18 18 18 18 18 18 17 17 17 17 17 17 17 16 16 16 16 16 16 15 15 15 14 14 14 14 14 14 14 14 13 13 13 13 13 13 13 13 13 12 12 12 12
18 18 18 18 18 18 17 17 17 17 17 17 16 16 16 16 16 16 15 15 15 14 14 14 14 13 13 13 13 13 13 13 13 13 13 12 12 12 12 12 12 12 12
18 18 18 17 17 17 17 17 17 17 16 16 16 16 16 16 16 15 15 15 14 14 14 14 14 13 13 13 13 13 13 12 12 12 12 12 12 12 12 12 12 11 11
18 18 17 17 17 17 17 17 16 16 16 16 16 16 16 15 15 15 15 15 14 14 14 14 13 13 13 13 13 13 12 12 12 12 12 12 12 12 12 11 11 11 11
18 17 17 17 17 17 17 16 16 16 16 16 16 15 15 15 15 15 14 14 14 14 13 13 13 13 13 13 13 12 12 12 12 12 12 12 11 11 11 11 11 11 11
17 17 17 17 17 17 16 16 16 16 15 15 15 15 15 15 15 14 14 14 14 13 13 13 13 13 13 13 13 12 12 12 12 11 11 11 11 11 11 11 11 10 10
17 17 16 16 16 16 16 16 15 15 15 15 15 14 14 14 14 14 14 13 13 13 13 13 13 13 13 12 12 12 12 11 11 11 11 11 11 11 10 10 10 10 10
17 16 16 16 16 16 16 15 15 15 15 15 14 14 14 14 14 14 13 13 13 13 13 13 13 12 12 12 12 12 12 11 11 11 11 11 10 10 10 10 10 10 10
Wind_Speed
4 4 4 5 5 5 5 4 4 3 3 3 4 4 5 7 9 10 11 15 16 16 16 15 15 15 14 14 13 13 12 11 11 11 11 11 11 11 10 10 10 9 9
6 4 3 3 4 5 6 5 5 3 2 2 2 4 5 7 8 9 10 13 16 16 16 16 16 15 15 15 14 14 13 13 12 12 12 12 11 11 11 11 10 10 10
7 5 3 3 4 6 5 4 3 2 2 1 1 2 3 5 8 9 10 11 13 16 17 17 16 16 16 16 15 15 14 14 13 13 13 13 13 13 12 12 12 11 11
8 5 3 3 4 4 3 2 2 2 1 1 1 1 1 3 5 8 9 10 11 12 15 16 16 16 16 16 16 16 16 15 15 15 14 14 14 14 14 14 13 13 12
8 6 3 3 3 2 2 3 2 3 2 2 1 1 1 1 2 5 6 9 11 11 11 14 16 17 16 16 16 17 17 17 17 16 16 16 16 16 16 15 15 15 14
7 6 3 3 3 2 1 2 2 2 2 2 1 0 1 1 1 2 4 5 7 9 10 11 12 13 15 15 15 16 16 16 16 16 16 16 16 16 16 16 16 16 16
7 5 3 2 3 2 2 2 2 2 1 1 2 1 2 1 0 1 1 2 3 6 7 9 10 10 10 14 15 15 15 15 15 16 16 16 16 16 16 16 16 16 16
7 6 4 3 3 3 2 2 2 2 1 2 2 2 1 3 2 1 0 1 1 2 3 5 7 8 8 8 10 14 15 14 15 15 14 15 15 15 15 15 14 14 15
7 6 6 4 4 4 3 3 3 4 2 1 2 3 2 2 2 2 1 0 0 1 1 2 3 5 7 6 6 8 11 12 12 12 12 13 14 14 14 14 14 14 13
5 6 6 5 4 4 4 4 3 3 4 2 1 1 2 3 2 1 2 2 1 1 1 1 2 3 4 5 5 6 7 9 10 10 11 11 11 12 12 13 13 12 12
4 5 5 4 4 4 4 3 3 3 3 3 2 1 1 1 2 2 1 2 2 2 1 1 2 2 4 4 3 4 6 7 8 9 9 10 10 10 10 10 11 11 11
2 4 4 4 4 4 4 4 4 4 3 3 2 2 2 2 2 2 2 2 2 2 2 0 1 2 3 3 3 3 4 4 6 7 8 9 10 9 9 9 9 10 10
3 4 4 4 4 4 4 4 4 4 4 3 3 2 2 2 2 3 2 2 2 1 1 1 1 2 2 3 3 3 3 3 4 5 5 6 7 8 8 7 7 7 7
5 5 5 5 5 5 5 4 3 4 3 3 3 3 2 2 2 3 3 3 1 1 1 2 1 1 2 3 3 4 2 3 4 4 4 5 5 5 5 5 5 5 5
4 5 5 5 5 5 5 4 3 4 3 3 3 2 2 2 1 2 2 3 3 2 3 2 1 1 2 3 2 3 3 3 3 4 4 4 5 5 5 5 4 4 3
5 5 5 5 5 5 5 5 4 3 3 3 3 2 2 1 1 1 2 2 2 3 3 2 2 1 1 2 1 2 3 3 3 3 3 3 4 4 4 4 4 3 3
5 5 5 5 5 5 4 4 4 4 4 3 3 3 3 2 1 1 1 1 2 2 3 2 1 1 1 1 1 1 2 2 2 3 3 3 3 3 4 4 4 4 3
5 5 5 5 5 5 4 5 5 4 4 4 3 3 2 2 1 1 1 1 2 2 2 2 1 1 1 2 1 1 1 1 2 2 2 2 2 3 3 3 4 4 3
5 5 5 5 5 4 4 4 4 4 4 4 3 3 3 2 2 2 1 1 2 1 1 2 2 1 1 1 0 0 0 0 1 1 2 2 3 3 4 4 4 4 4
4 5 5 5 5 5 4 4 4 3 3 3 3 3 3 3 3 3 2 2 2 1 1 2 1 1 1 1 1 1 1 1 1 1 1 2 3 3 4 4 5 5 4
5 5 5 5 4 4 4 5 4 4 3 2 2 3 3 3 4 3 3 3 2 2 2 2 2 1 1 1 2 2 2 1 1 1 0 1 2 2 3 5 6 6 5
5 5 5 5 5 4 6 7 6 4 4 4 3 3 2 2 2 3 4 4 5 4 4 3 3 3 4 4 3 3 2 1 2 2 2 1 2 1 3 4 5 6 7
5 4 4 5 5 5 6 7 6 5 4 4 4 3 2 1 2 2 3 3 3 5 6 5 4 5 4 5 4 4 3 3 3 3 2 2 1 2 4 5 6 6 7
6 5 5 5 4 4 6 7 7 5 4 4 4 4 3 2 2 3 2 2 2 3 4 4 5 6 5 5 6 6 5 3 0 1 3 2 2 2 3 5 7 7 8
6 5 5 6 5 4 5 6 6 3 2 3 3 3 3 3 3 4 3 3 2 3 3 3 4 4 4 5 5 3 3 3 1 2 2 2 2 1 1 2 6 8 9
6 5 4 5 6 5 5 7 7 4 3 2 2 2 3 3 3 5 4 4 3 3 2 2 2 2 2 2 4 5 5 4 2 2 3 2 2 2 1 2 2 5 6
Wind_Direction
162 167 173 180 196 201 194 193 205 227 238 234 206 185 177 170 168 173 179 187 188 189 189 189 190 190 190 192 193 194 194 195 194 194 196 196 196 197 197 198 198 199 198
168 164 167 179 199 204 201 198 204 203 216 211 197 182 177 171 177 181 184 193 197 197 198 198 198 198 199 201 202 202 202 203 203 203 203 204 204 204 206 205 205 206 206
172 167 167 178 197 204 200 197 199 185 186 174 179 187 178 178 181 187 190 196 200 204 206 206 205 206 207 206 206 207 207 207 206 206 207 208 208 209 211 210 209 210 211
176 167 167 188 198 193 182 173 174 161 162 154 170 233 202 180 189 193 193 199 201 205 211 213 212 213 213 214 212 212 213 212 212 213 214 214 215 215 215 214 215 216 217
177 165 170 190 188 173 175 187 175 167 175 177 184 223 226 202 203 200 193 202 203 205 209 215 217 219 219 219 219 219 217 217 216 218 219 220 220 220 218 219 219 220 220
179 167 170 182 179 155 155 152 163 164 173 176 175 207 249 216 202 207 201 196 199 207 211 212 215 224 224 222 221 222 221 221 220 220 221 223 223 222 222 222 223 224 225
176 168 165 165 163 160 174 174 159 152 156 131 95 17 352 353 275 231 201 187 197 206 208 211 210 214 221 226 227 225 222 222 223 224 225 226 226 224 224 225 226 227 228
180 177 168 172 173 166 173 174 151 144 169 147 134 112 3 347 340 289 226 186 210 204 200 206 200 201 207 213 225 227 226 228 230 229 227 228 227 225 225 225 226 229 229
184 182 177 172 178 174 184 195 176 160 176 202 147 145 157 221 289 320 317 310 177 199 225 194 192 197 198 199 213 223 223 226 229 231 230 229 227 226 226 228 230 230 230
187 187 181 179 179 176 180 192 176 165 157 183 209 187 171 165 164 293 325 325 309 248 232 218 184 182 184 184 201 213 222 225 229 235 236 230 226 227 228 227 227 228 226
202 192 181 177 176 175 175 174 159 154 159 169 178 181 168 153 143 169 254 307 327 297 256 218 162 158 177 184 191 207 219 222 227 234 238 237 232 228 226 226 229 231 231
214 210 186 177 179 179 178 178 170 167 175 173 174 169 168 174 185 174 210 247 267 287 293 273 158 161 176 185 204 206 211 218 221 225 229 231 227 224 225 229 234 235 235
209 213 197 187 187 188 185 179 174 182 182 178 183 188 192 200 180 172 178 213 235 263 282 305 219 164 176 179 196 202 210 207 216 224 225 226 223 222 224 226 231 237 240
209 204 194 193 192 188 189 186 185 195 185 187 191 188 195 210 186 179 178 178 206 280 274 265 304 180 171 166 188 199 198 203 207 216 220 223 217 217 223 225 227 233 243
205 200 193 191 195 193 192 184 191 194 181 186 187 180 189 214 202 197 177 170 173 210 245 253 269 270 171 161 180 179 189 193 199 213 218 218 213 216 220 218 213 213 226
204 193 197 194 195 195 196 186 190 187 170 183 176 167 192 208 212 215 199 194 180 185 224 236 232 251 164 158 185 186 198 195 206 209 204 199 202 209 211 208 198 196 200
196 192 195 191 189 191 189 181 188 176 177 187 188 181 201 192 197 224 203 189 192 182 210 260 251 240 170 183 168 193 190 180 206 208 202 200 202 206 201 189 180 176 169
198 192 187 185 188 186 180 177 185 182 177 184 190 181 208 193 202 229 209 210 209 200 193 236 256 225 221 212 197 205 174 190 196 206 188 191 189 190 182 174 165 158 152
199 192 179 176 177 175 175 178 175 176 179 185 186 184 201 179 215 237 215 217 227 219 192 195 235 249 263 203 149 241 199 124 177 176 171 191 189 182 180 176 172 167 157
195 192 180 174 172 168 166 167 164 174 181 185 186 193 200 196 206 216 217 221 214 216 206 187 218 251 259 236 161 201 281 295 259 197 179 187 196 211 209 198 190 181 173
195 190 177 172 171 175 178 167 166 172 174 187 202 213 212 196 189 198 205 210 199 208 209 202 218 241 243 217 221 211 216 236 265 242 219 223 196 221 234 221 211 201 193
188 182 178 179 182 193 174 166 167 173 180 192 210 233 232 213 218 217 213 204 195 197 208 209 217 226 236 226 217 201 184 165 249 238 175 239 187 227 244 228 221 215 210
189 185 187 182 183 188 179 175 178 179 183 195 197 207 229 236 213 224 228 227 229 223 206 200 209 224 222 219 204 201 194 187 213 213 161 219 211 231 241 232 222 218 220
191 193 192 187 178 185 185 184 184 178 178 189 193 196 197 211 220 201 204 221 247 245 229 214 217 227 226 219 204 202 200 191 247 197 155 189 222 233 240 237 232 225 225
195 196 189 183 177 183 184 185 171 160 183 209 211 198 190 203 225 191 179 203 249 279 270 243 234 229 216 199 180 160 160 156 219 241 194 172 207 227 251 250 244 234 228
192 188 183 181 177 184 188 190 177 170 184 211 230 221 202 200 206 183 182 190 222 254 274 301 293 280 238 210 193 188 185 180 181 229 217 175 184 157 256 273 241 236 233
Height
1553 1554 1555 1556 1557 1558 1559 1560 1560 1561 1562 1563 1564 1564 1565 1565 1566 1566 1566 1567 1567 1567 1568 1568 1568 1569 1569 1570 1570 1571 1572 1572 1573 1574 1574 1575 1576 1576 1577 1577 1578 1578 1579
1554 1554 1555 1556 1557 1558 1559 1560 1560 1561 1562 1563 1563 1564 1564 1565 1565 1566 1566 1566 1566 1567 1567 1568 1568 1568 1569 1569 1569 1570 1571 1571 1572 1572 1573 1574 1574 1575 1576 1576 1577 1577 1578
1554 1554 1555 1556 1557 1558 1559 1559 1560 1561 1561 1562 1563 1563 1564 1564 1564 1565 1565 1565 1565 1566 1566 1566 1567 1567 1567 1568 1568 1568 1569 1570 1570 1571 1572 1572 1573 1573 1574 1574 1575 1575 1576
1554 1554 1555 1556 1557 1558 1558 1559 1559 1560 1560 1561 1561 1562 1562 1563 1563 1563 1563 1564 1564 1564 1564 1565 1565 1565 1566 1566 1566 1566 1567 1568 1568 1569 1570 1570 1571 1571 1572 1572 1573 1573 1574
1553 1554 1554 1555 1556 1557 1557 1558 1558 1559 1559 1560 1560 1561 1561 1561 1561 1562 1562 1562 1562 1562 1562 1563 1563 1563 1563 1563 1564 1564 1565 1566 1566 1567 1567 1568 1568 1569 1569 1570 1570 1571 1571
1552 1553 1553 1554 1555 1556 1556 1557 1557 1558 1558 1558 1559 1559 1559 1559 1560 1560 1560 1560 1560 1560 1560 1560 1561 1561 1561 1561 1562 1562 1563 1563 1564 1564 1564 1565 1565 1566 1566 1567 1567 1568 1568
1551 1551 1552 1553 1553 1554 1555 1555 1556 1556 1557 1557 1557 1558 1558 1558 1558 1558 1558 1558 1558 1558 1558 1558 1558 1558 1559 1559 1559 1560 1560 1560 1561 1561 1561 1562 1562 1562 1563 1564 1564 1565 1565
1549 1550 1550 1551 1552 1552 1553 1554 1554 1554 1555 1555 1556 1556 1556 1557 1556 1556 1556 1556 1556 1556 1556 1556 1555 1556 1556 1556 1556 1557 1557 1558 1558 1558 1558 1558 1559 1559 1559 1560 1561 1561 1561
1548 1548 1549 1549 1550 1550 1551 1552 1552 1553 1553 1554 1554 1555 1555 1554 1554 1554 1554 1554 1554 1554 1554 1553 1553 1553 1553 1553 1554 1554 1554 1555 1555 1554 1554 1554 1555 1555 1555 1556 1556 1557 1557
1546 1547 1547 1548 1548 1548 1549 1549 1550 1551 1551 1552 1552 1553 1553 1553 1552 1552 1552 1552 1552 1552 1552 1551 1551 1551 1550 1551 1551 1551 1551 1551 1551 1551 1551 1550 1551 1551 1551 1551 1552 1553 1553
1545 1545 1545 1546 1546 1547 1547 1548 1548 1549 1549 1550 1550 1550 1551 1551 1550 1550 1549 1550 1550 1550 1550 1549 1549 1549 1548 1548 1548 1548 1548 1548 1547 1547 1547 1547 1546 1547 1547 1547 1548 1548 1549
1543 1543 1543 1544 1544 1545 1545 1545 1546 1546 1547 1547 1548 1548 1548 1548 1548 1548 1548 1547 1547 1547 1547 1547 1547 1546 1546 1545 1545 1545 1545 1545 1544 1544 1543 1543 1543 1543 1543 1543 1544 1544 1544
1541 1541 1542 1542 1542 1543 1543 1544 1544 1544 1545 1545 1545 1545 1545 1546 1546 1546 1546 1545 1545 1545 1545 1545 1544 1544 1544 1543 1543 1543 1542 1542 1541 1541 1540 1540 1540 1540 1539 1539 1540 1540 1540
1540 1540 1540 1540 1540 1541 1541 1541 1542 1542 1542 1542 1543 1543 1543 1543 1544 1544 1544 1544 1543 1543 1543 1542 1542 1542 1541 1541 1540 1540 1539 1539 1538 1538 1537 1537 1537 1536 1536 1536 1536 1536 1536
1538 1538 1538 1538 1538 1538 1539 1539 1539 1540 1540 1540 1541 1541 1541 1541 1541 1541 1541 1541 1542 1540 1540 1540 1539 1539 1539 1538 1538 1537 1537 1536 1535 1535 1534 1534 1534 1533 1533 1533 1533 1533 1533
1535 1535 1535 1535 1536 1536 1537 1537 1537 1538 1538 1538 1539 1539 1539 1539 1539 1539 1539 1539 1539 1539 1537 1537 1537 1537 1536 1536 1536 1535 1534 1533 1533 1532 1532 1531 1531 1531 1531 1531 1530 1530 1530
1532 1533 1533 1533 1534 1534 1535 1535 1535 1535 1536 1536 1536 1536 1537 1537 1536 1536 1536 1536 1536 1536 1535 1535 1535 1534 1534 1533 1533 1532 1531 1531 1530 1530 1529 1529 1529 1529 1528 1528 1528 1528 1527
1530 1530 1530 1531 1531 1531 1532 1533 1533 1533 1533 1534 1534 1534 1534 1534 1534 1534 1533 1533 1533 1533 1533 1532 1532 1532 1531 1531 1530 1529 1529 1528 1528 1527 1527 1527 1526 1526 1526 1526 1526 1525 1525
1527 1527 1528 1528 1529 1529 1530 1531 1531 1531 1532 1532 1532 1532 1531 1531 1531 1531 1531 1531 1531 1530 1530 1530 1529 1529 1528 1528 1527 1527 1526 1526 1526 1525 1525 1524 1524 1524 1524 1524 1524 1523 1523
1524 1524 1525 1526 1526 1527 1527 1528 1529 1530 1530 1530 1530 1530 1529 1529 1528 1528 1528 1528 1528 1527 1527 1527 1526 1526 1525 1525 1525 1524 1523 1523 1523 1523 1523 1522 1522 1522 1522 1521 1521 1521 1521
1521 1522 1522 1522 1523 1524 1524 1525 1526 1527 1527 1527 1527 1527 1527 1527 1526 1525 1525 1525 1525 1525 1524 1524 1523 1523 1522 1522 1521 1521 1521 1521 1520 1520 1520 1520 1520 1520 1520 1519 1519 1519 1519
1517 1518 1518 1519 1520 1521 1522 1523 1524 1524 1524 1525 1525 1524 1524 1524 1523 1523 1522 1522 1522 1521 1521 1520 1519 1519 1519 1519 1518 1518 1518 1518 1517 1518 1518 1518 1518 1518 1518 1518 1517 1517 1517
1514 1514 1515 1516 1517 1518 1519 1520 1521 1521 1521 1521 1521 1521 1521 1521 1520 1520 1520 1519 1519 1518 1518 1517 1516 1516 1516 1516 1516 1515 1515 1515 1515 1516 1516 1515 1516 1515 1516 1516 1516 1516 1516
1511 1511 1512 1512 1513 1514 1516 1517 1517 1517 1518 1518 1518 1518 1518 1518 1517 1517 1516 1516 1515 1515 1514 1514 1513 1513 1513 1513 1513 1513 1513 1513 1513 1514 1514 1513 1513 1513 1514 1514 1514 1513 1513
1507 1507 1508 1509 1509 1510 1511 1512 1513 1514 1514 1514 1514 1515 1515 1514 1514 1514 1513 1513 1512 1512 1512 1511 1510 1510 1510 1510 1510 1510 1509 1510 1510 1510 1511 1511 1510 1511 1511 1511 1511 1511 1511
1503 1504 1504 1504 1505 1506 1507 1508 1509 1509 1510 1510 1511 1511 1511 1511 1511 1511 1510 1509 1509 1508 1508 1508 1508 1507 1507 1507 1506 1506 1506 1507 1507 1507 1508 1508 1508 1508 1508 1509 1509 1508 1508